Time,TemperatureF,DewpointF,PressureIn,WindDirection,WindDirectionDegrees,WindSpeedMPH,WindSpeedGustMPH,Humidity,HourlyPrecipIn,Conditions,Clouds,dailyrainin,SolarRadiationWatts/m^2,SoftwareType,DateUTC
2013-03-23 00:02:00,28.0,22.0,-100.00,NE,51,3.0,6.0,78,0.00,,,0.00,1.000000,,2013-03-23 07:02:00,
2013-03-23 00:22:00,28.0,22.0,-100.00,NE,51,3.0,6.0,78,0.00,,,0.00,1.000000,,2013-03-23 07:22:00,
2013-03-23 00:33:00,28.0,22.0,-100.00,NE,51,3.0,6.0,78,0.00,,,0.00,1.000000,,2013-03-23 07:33:00,
2013-03-23 00:42:00,28.0,22.0,-100.00,NE,51,3.0,6.0,78,0.00,,,0.00,1.000000,,2013-03-23 07:42:00,
2013-03-23 00:52:00,28.0,22.0,-100.00,NE,51,3.0,6.0,78,0.00,,,0.00,1.000000,,2013-03-23 07:52:00,
2013-03-23 01:02:00,28.0,23.0,-100.00,ENE,68,4.0,7.0,81,0.00,,,0.00,1.000000,,2013-03-23 08:02:00,
2013-03-23 01:22:00,28.0,23.0,-100.00,ENE,68,4.0,7.0,81,0.00,,,0.00,1.000000,,2013-03-23 08:22:00,
2013-03-23 01:32:00,28.0,23.0,-100.00,ENE,68,4.0,7.0,81,0.00,,,0.00,1.000000,,2013-03-23 08:32:00,
2013-03-23 01:42:00,28.0,23.0,-100.00,ENE,68,4.0,7.0,81,0.00,,,0.00,1.000000,,2013-03-23 08:42:00,
2013-03-23 01:52:00,28.0,23.0,-100.00,ENE,68,4.0,7.0,81,0.00,,,0.00,1.000000,,2013-03-23 08:52:00,
2013-03-23 02:02:00,27.0,21.0,-100.00,East,99,6.0,7.0,78,0.00,,,0.00,1.000000,,2013-03-23 09:02:00,
2013-03-23 02:33:00,27.0,21.0,-100.00,East,99,6.0,7.0,78,0.00,,,0.00,1.000000,,2013-03-23 09:33:00,
2013-03-23 02:43:00,27.0,21.0,-100.00,East,99,6.0,7.0,78,0.00,,,0.00,1.000000,,2013-03-23 09:43:00,
2013-03-23 02:53:00,27.0,21.0,-100.00,East,99,6.0,7.0,78,0.00,,,0.00,1.000000,,2013-03-23 09:53:00,
2013-03-23 03:02:00,28.0,21.0,-100.00,East,97,4.0,7.0,74,0.00,,,0.00,1.000000,,2013-03-23 10:02:00,
2013-03-23 03:34:00,28.0,21.0,-100.00,East,97,4.0,7.0,74,0.00,,,0.00,1.000000,,2013-03-23 10:34:00,
2013-03-23 03:43:00,28.0,21.0,-100.00,East,97,4.0,7.0,74,0.00,,,0.00,1.000000,,2013-03-23 10:43:00,
2013-03-23 03:52:00,28.0,21.0,-100.00,East,97,4.0,7.0,74,0.00,,,0.00,1.000000,,2013-03-23 10:52:00,
2013-03-23 04:02:00,27.0,20.0,-100.00,South,181,3.0,6.0,73,0.00,,,0.00,1.000000,,2013-03-23 11:02:00,
2013-03-23 04:32:00,27.0,20.0,-100.00,South,181,3.0,6.0,73,0.00,,,0.00,1.000000,,2013-03-23 11:32:00,
2013-03-23 04:42:00,27.0,20.0,-100.00,South,181,3.0,6.0,73,0.00,,,0.00,1.000000,,2013-03-23 11:42:00,
2013-03-23 04:52:00,27.0,20.0,-100.00,South,181,3.0,6.0,73,0.00,,,0.00,1.000000,,2013-03-23 11:52:00,
2013-03-23 05:02:00,27.0,20.0,-100.00,SW,230,2.0,4.0,76,0.00,,,0.00,1.000000,,2013-03-23 12:02:00,
2013-03-23 05:22:00,27.0,20.0,-100.00,SW,230,2.0,4.0,76,0.00,,,0.00,1.000000,,2013-03-23 12:22:00,
2013-03-23 05:33:00,27.0,20.0,-100.00,SW,230,2.0,4.0,76,0.00,,,0.00,1.000000,,2013-03-23 12:33:00,
2013-03-23 05:43:00,27.0,20.0,-100.00,SW,230,2.0,4.0,76,0.00,,,0.00,1.000000,,2013-03-23 12:43:00,
2013-03-23 05:53:00,27.0,20.0,-100.00,SW,230,2.0,4.0,76,0.00,,,0.00,1.000000,,2013-03-23 12:53:00,
2013-03-23 06:02:00,25.0,19.0,-100.00,East,89,2.0,3.0,79,0.00,,,0.00,1.000000,,2013-03-23 13:02:00,
2013-03-23 06:33:00,25.0,19.0,-100.00,East,89,2.0,3.0,79,0.00,,,0.00,1.000000,,2013-03-23 13:33:00,
2013-03-23 06:43:00,25.0,19.0,-100.00,East,89,2.0,3.0,79,0.00,,,0.00,1.000000,,2013-03-23 13:43:00,
2013-03-23 06:53:00,25.0,19.0,-100.00,East,89,2.0,3.0,79,0.00,,,0.00,1.000000,,2013-03-23 13:53:00,
2013-03-23 07:02:00,25.0,19.0,-100.00,East,88,1.0,3.0,76,0.00,,,0.00,1.000000,,2013-03-23 14:02:00,
2013-03-23 07:33:00,25.0,19.0,-100.00,East,88,1.0,3.0,76,0.00,,,0.00,1.000000,,2013-03-23 14:33:00,
2013-03-23 07:43:00,25.0,19.0,-100.00,East,88,1.0,3.0,76,0.00,,,0.00,1.000000,,2013-03-23 14:43:00,
2013-03-23 07:52:00,25.0,19.0,-100.00,East,88,1.0,3.0,76,0.00,,,0.00,1.000000,,2013-03-23 14:52:00,
2013-03-23 08:02:00,25.0,21.0,-100.00,SW,233,3.0,6.0,84,0.00,,,0.00,24.000000,,2013-03-23 15:02:00,
2013-03-23 08:34:00,25.0,21.0,-100.00,SW,233,3.0,6.0,84,0.00,,,0.00,24.000000,,2013-03-23 15:34:00,
2013-03-23 08:44:00,25.0,21.0,-100.00,SW,233,3.0,6.0,84,0.00,,,0.00,24.000000,,2013-03-23 15:44:00,
2013-03-23 08:53:00,25.0,21.0,-100.00,SW,233,3.0,6.0,84,0.00,,,0.00,24.000000,,2013-03-23 15:53:00,
2013-03-23 09:02:00,29.0,23.0,-100.00,West,266,4.0,5.0,78,0.00,,,0.00,68.000000,,2013-03-23 16:02:00,
2013-03-23 09:33:00,29.0,23.0,-100.00,West,266,4.0,5.0,78,0.00,,,0.00,68.000000,,2013-03-23 16:33:00,
2013-03-23 09:43:00,29.0,23.0,-100.00,West,266,4.0,5.0,78,0.00,,,0.00,68.000000,,2013-03-23 16:43:00,
2013-03-23 09:53:00,29.0,23.0,-100.00,West,266,4.0,5.0,78,0.00,,,0.00,68.000000,,2013-03-23 16:53:00,
2013-03-23 10:02:00,34.0,23.0,-100.00,West,275,2.0,5.0,64,0.00,,,0.00,139.000000,,2013-03-23 17:02:00,
2013-03-23 10:33:00,34.0,23.0,-100.00,West,275,2.0,5.0,64,0.00,,,0.00,139.000000,,2013-03-23 17:33:00,
2013-03-23 10:43:00,34.0,23.0,-100.00,West,275,2.0,5.0,64,0.00,,,0.00,139.000000,,2013-03-23 17:43:00,
2013-03-23 10:52:00,34.0,23.0,-100.00,West,275,2.0,5.0,64,0.00,,,0.00,139.000000,,2013-03-23 17:52:00,
2013-03-23 11:02:00,37.0,20.0,-100.00,SE,143,5.0,10.0,50,0.00,,,0.00,416.000000,,2013-03-23 18:02:00,
2013-03-23 11:23:00,37.0,20.0,-100.00,SE,143,5.0,10.0,50,0.00,,,0.00,416.000000,,2013-03-23 18:23:00,
2013-03-23 11:32:00,37.0,20.0,-100.00,SE,143,5.0,10.0,50,0.00,,,0.00,416.000000,,2013-03-23 18:32:00,
2013-03-23 11:43:00,37.0,20.0,-100.00,SE,143,5.0,10.0,50,0.00,,,0.00,416.000000,,2013-03-23 18:43:00,
2013-03-23 11:53:00,37.0,20.0,-100.00,SE,143,5.0,10.0,50,0.00,,,0.00,416.000000,,2013-03-23 18:53:00,
2013-03-23 12:02:00,39.0,19.0,-100.00,SSE,153,7.0,12.0,44,0.00,,,0.00,566.000000,,2013-03-23 19:02:00,
2013-03-23 12:23:00,39.0,19.0,-100.00,SSE,153,7.0,12.0,44,0.00,,,0.00,566.000000,,2013-03-23 19:23:00,
2013-03-23 12:33:00,39.0,19.0,-100.00,SSE,153,7.0,12.0,44,0.00,,,0.00,566.000000,,2013-03-23 19:33:00,
2013-03-23 12:43:00,39.0,19.0,-100.00,SSE,153,7.0,12.0,44,0.00,,,0.00,566.000000,,2013-03-23 19:43:00,
2013-03-23 12:53:00,39.0,19.0,-100.00,SSE,153,7.0,12.0,44,0.00,,,0.00,566.000000,,2013-03-23 19:53:00,
2013-03-23 13:02:00,40.0,18.0,-100.00,WSW,244,6.0,11.0,41,0.00,,,0.00,625.000000,,2013-03-23 20:02:00,
2013-03-23 13:32:00,40.0,18.0,-100.00,WSW,244,6.0,11.0,41,0.00,,,0.00,625.000000,,2013-03-23 20:32:00,
2013-03-23 13:43:00,40.0,18.0,-100.00,WSW,244,6.0,11.0,41,0.00,,,0.00,625.000000,,2013-03-23 20:43:00,
2013-03-23 13:53:00,40.0,18.0,-100.00,WSW,244,6.0,11.0,41,0.00,,,0.00,625.000000,,2013-03-23 20:53:00,
2013-03-23 14:02:00,43.0,19.0,-100.00,WSW,254,4.0,9.0,37,0.00,,,0.00,597.000000,,2013-03-23 21:02:00,
2013-03-23 14:22:00,43.0,19.0,-100.00,WSW,254,4.0,9.0,37,0.00,,,0.00,597.000000,,2013-03-23 21:22:00,
2013-03-23 14:33:00,43.0,19.0,-100.00,WSW,254,4.0,9.0,37,0.00,,,0.00,597.000000,,2013-03-23 21:33:00,
2013-03-23 14:43:00,43.0,19.0,-100.00,WSW,254,4.0,9.0,37,0.00,,,0.00,597.000000,,2013-03-23 21:43:00,
2013-03-23 14:53:00,43.0,19.0,-100.00,WSW,254,4.0,9.0,37,0.00,,,0.00,597.000000,,2013-03-23 21:53:00,
2013-03-23 15:02:00,43.0,19.0,-100.00,NNE,20,6.0,13.0,38,0.00,,,0.00,570.000000,,2013-03-23 22:02:00,
2013-03-23 15:23:00,43.0,19.0,-100.00,NNE,20,6.0,13.0,38,0.00,,,0.00,570.000000,,2013-03-23 22:23:00,
2013-03-23 15:33:00,43.0,19.0,-100.00,NNE,20,6.0,13.0,38,0.00,,,0.00,570.000000,,2013-03-23 22:33:00,
2013-03-23 15:42:00,43.0,19.0,-100.00,NNE,20,6.0,13.0,38,0.00,,,0.00,570.000000,,2013-03-23 22:42:00,
2013-03-23 15:53:00,43.0,19.0,-100.00,NNE,20,6.0,13.0,38,0.00,,,0.00,570.000000,,2013-03-23 22:53:00,
2013-03-23 16:33:00,43.0,20.0,-100.00,NNW,340,7.0,15.0,40,0.00,,,0.00,532.000000,,2013-03-23 23:33:00,
2013-03-23 16:43:00,43.0,20.0,-100.00,NNW,340,7.0,15.0,40,0.00,,,0.00,532.000000,,2013-03-23 23:43:00,
2013-03-23 16:52:00,43.0,20.0,-100.00,NNW,340,7.0,15.0,40,0.00,,,0.00,532.000000,,2013-03-23 23:52:00,
2013-03-23 17:01:00,43.0,20.0,-100.00,NNW,340,7.0,15.0,40,0.00,,,0.00,532.000000,,2013-03-24 00:01:00,
2013-03-23 17:02:00,44.0,21.0,-100.00,NW,324,6.0,13.0,40,0.00,,,0.00,492.000000,,2013-03-24 00:02:00,
2013-03-23 17:33:00,44.0,21.0,-100.00,NW,324,6.0,13.0,40,0.00,,,0.00,492.000000,,2013-03-24 00:33:00,
2013-03-23 17:42:00,44.0,21.0,-100.00,NW,324,6.0,13.0,40,0.00,,,0.00,492.000000,,2013-03-24 00:42:00,
2013-03-23 17:52:00,44.0,21.0,-100.00,NW,324,6.0,13.0,40,0.00,,,0.00,492.000000,,2013-03-24 00:52:00,
2013-03-23 18:02:00,42.0,19.0,-100.00,NNW,345,5.0,10.0,39,0.00,,,0.00,318.000000,,2013-03-24 01:02:00,
2013-03-23 18:33:00,42.0,19.0,-100.00,NNW,345,5.0,10.0,39,0.00,,,0.00,318.000000,,2013-03-24 01:33:00,
2013-03-23 18:43:00,42.0,19.0,-100.00,NNW,345,5.0,10.0,39,0.00,,,0.00,318.000000,,2013-03-24 01:43:00,
2013-03-23 18:53:00,42.0,19.0,-100.00,NNW,345,5.0,10.0,39,0.00,,,0.00,318.000000,,2013-03-24 01:53:00,
2013-03-23 19:02:00,38.0,19.0,-100.00,NNE,19,7.0,9.0,45,0.00,,,0.00,118.000000,,2013-03-24 02:02:00,
2013-03-23 19:32:00,38.0,19.0,-100.00,NNE,19,7.0,9.0,45,0.00,,,0.00,118.000000,,2013-03-24 02:32:00,
2013-03-23 19:42:00,38.0,19.0,-100.00,NNE,19,7.0,9.0,45,0.00,,,0.00,118.000000,,2013-03-24 02:42:00,
2013-03-23 19:52:00,38.0,19.0,-100.00,NNE,19,7.0,9.0,45,0.00,,,0.00,118.000000,,2013-03-24 02:52:00,
2013-03-23 20:02:00,33.0,15.0,-100.00,ENE,73,4.0,8.0,47,0.00,,,0.00,6.000000,,2013-03-24 03:02:00,
2013-03-23 20:33:00,33.0,15.0,-100.00,ENE,73,4.0,8.0,47,0.00,,,0.00,6.000000,,2013-03-24 03:33:00,
2013-03-23 20:43:00,33.0,15.0,-100.00,ENE,73,4.0,8.0,47,0.00,,,0.00,6.000000,,2013-03-24 03:43:00,
2013-03-23 20:53:00,33.0,15.0,-100.00,ENE,73,4.0,8.0,47,0.00,,,0.00,6.000000,,2013-03-24 03:53:00,
2013-03-23 21:02:00,32.0,14.0,-100.00,ENE,64,3.0,6.0,46,0.00,,,0.00,1.000000,,2013-03-24 04:02:00,
2013-03-23 21:33:00,32.0,14.0,-100.00,ENE,64,3.0,6.0,46,0.00,,,0.00,1.000000,,2013-03-24 04:33:00,
2013-03-23 21:43:00,32.0,14.0,-100.00,ENE,64,3.0,6.0,46,0.00,,,0.00,1.000000,,2013-03-24 04:43:00,
2013-03-23 21:53:00,32.0,14.0,-100.00,ENE,64,3.0,6.0,46,0.00,,,0.00,1.000000,,2013-03-24 04:53:00,
2013-03-23 22:02:00,31.0,14.0,-100.00,East,98,4.0,6.0,49,0.00,,,0.00,1.000000,,2013-03-24 05:02:00,
2013-03-23 22:32:00,31.0,14.0,-100.00,East,98,4.0,6.0,49,0.00,,,0.00,1.000000,,2013-03-24 05:32:00,
2013-03-23 22:43:00,31.0,14.0,-100.00,East,98,4.0,6.0,49,0.00,,,0.00,1.000000,,2013-03-24 05:43:00,
2013-03-23 22:52:00,31.0,14.0,-100.00,East,98,4.0,6.0,49,0.00,,,0.00,1.000000,,2013-03-24 05:52:00,
2013-03-23 23:02:00,31.0,15.0,-100.00,ENE,57,3.0,4.0,52,0.00,,,0.00,1.000000,,2013-03-24 06:02:00,
2013-03-23 23:32:00,31.0,15.0,-100.00,ENE,57,3.0,4.0,52,0.00,,,0.00,1.000000,,2013-03-24 06:32:00,
2013-03-23 23:42:00,31.0,15.0,-100.00,ENE,57,3.0,4.0,52,0.00,,,0.00,1.000000,,2013-03-24 06:42:00,
2013-03-23 23:52:00,31.0,15.0,-100.00,ENE,57,3.0,4.0,52,0.00,,,0.00,1.000000,,2013-03-24 06:52:00,